Current Version              Previous Version:    01  02  03  04  05  06  07  08  09  10  11  12  13  14  15  16  17  18  19  20  21  22  23  24  25  26  27  28  29  30  
   31  32  33  34  35  36  37  38  39  40  41  42  43  44  45  46  47  48  49  50  51  52  53  54  55  56  57  58  59  60  

[Printable]
134
ASUS44 KFWD 312301
RWRTX
NORTH TEXAS HOURLY WEATHER ROUNDUP
NATIONAL WEATHER SERVICE FORT WORTH TX
600 PM CDT THU JUL 31 2014

NOTE: "FAIR" INDICATES FEW OR NO CLOUDS BELOW 12,000 FEET WITH NO
SIGNIFICANT WEATHER AND/OR OBSTRUCTIONS TO VISIBILITY.

TXZ118-119-010000-
DALLAS/FORT WORTH METROPLEX

CITY           SKY/WX    TMP DP  RH WIND       PRES   REMARKS
DFW AIRPORT    CLOUDY    74  67  78 N15       30.00R
DALLAS LOVE    CLOUDY    73  68  84 N14       29.99R
FTW MEACHAM    CLOUDY    76  66  71 N15       30.00S
DAL-EXECUTIVE  CLOUDY    77  66  68 N16       29.98S
FTW-ALLIANCE   CLOUDY    74  66  76 N12       30.00S
FTW-NAS-JRB    CLOUDY    79  64  60 N15       30.05R
FTW-SPINKS     CLOUDY    75  64  69 N8G17     30.02S
ARLINGTON      CLOUDY    76  65  68 NW18G24   29.99S
GRAND PRAIRIE  PTSUNNY   75  64  69 NW10G16   30.01R
ADDISON        CLOUDY    72  66  83 N15G21    30.00S
LANCASTER      CLOUDY    77  65  65 N10G16    29.99S
$$

TXZ091>094-102>105-117-120-121-131>134-010000-
NORTH CENTRAL TEXAS

CITY           SKY/WX    TMP DP  RH WIND       PRES   REMARKS
SHRMAN/DENISON CLOUDY    70  65  84 N12G18    30.03S
GAINESVILLE    PTSUNNY   72  66  83 NE10G17   30.05S
BOWIE          CLOUDY    76  66  71 NE10      30.03F
BRIDGEPORT     CLOUDY    76  63  64 N10       30.04F
DECATUR        CLOUDY    73  65  74 N9        30.03F
DENTON         CLOUDY    73  67  81 N16       30.01S
MCKINNEY       CLOUDY    72  67  84 N14       29.99S
ROCKWALL       LGT RAIN  71  70  96 N7        29.97S
TERRELL        CLOUDY    79  72  79 N14       29.96S
WAXAHACHIE     CLOUDY    78  64  63 NW15      29.99F
CLEBURNE       CLOUDY    75  68  78 N9G15     30.02S
GRANBURY       CLOUDY    79  65  62 N10       30.02S
$$

TXZ083>090-098>101-113>116-127>130-139>142-154-155-010000-
WESTERN NORTH TEXAS

CITY           SKY/WX    TMP DP  RH WIND       PRES   REMARKS
WICHITA FALLS  CLOUDY    79  66  64 N15       30.03F
WF-KICKAPOO    CLOUDY    79  65  63 NE13      30.04F
VERNON         CLOUDY    78  63  60 NE8       30.07F
ABILENE        MOSUNNY   80  63  55 N12G18    30.05F
ABILENE-DYESS  MOSUNNY   81  64  56 NE12      30.05F
BRECKENRIDGE   CLOUDY    82  63  53 NE13G21   30.03F HAZE
GRAHAM         CLOUDY    77  65  65 N10G17    30.02F
MINERAL WELLS  CLOUDY    77  65  66 N14       30.01S
STEPHENVILLE   CLOUDY    79  63  57 N10       30.04F
COMANCHE       CLOUDY    81  63  54 N13       30.02F
BROWNWOOD      CLOUDY    82  64  54 N10       30.02S
COLEMAN        CLOUDY    83  61  46 N13       30.03F
BRADY          SUNNY     84  64  51 N7        30.03F
$$

TXZ143>147-156>162-174-175-010000-
CENTRAL TEXAS

CITY           SKY/WX    TMP DP  RH WIND       PRES   REMARKS
WACO           SUNNY     85  66  53 N21G28    29.95S
WACO-TSTC      MOSUNNY   86  70  58 NW16      29.95S HX  90
WACO-MCGREGOR  MOSUNNY   88  66  48 N14G21    29.97S HX  90
HILLSBORO      CLOUDY    79  65  60 NW14      29.98F
CORSICANA      CLOUDY    84  67  56 N15       29.95F
MEXIA          PTSUNNY   83  70  64 NW16G23   29.94S
CAMERON        PTSUNNY   92  71  50 N14       29.91S HX  98
TEMPLE         CLOUDY    88  64  45 NW14      29.93F
KILLEEN        PTSUNNY   88  68  51 N9        29.96F HX  91
KILLEEN-SKYLRK PTSUNNY   88  66  48 N13       29.95F HX  90
FORT HOOD      PTSUNNY   92  67  43 NW15G21   29.96F HX  95
GATESVILLE     MOSUNNY   84  66  54 N12       30.00S
HAMILTON       CLOUDY    82  64  53 N16       30.02S
LAMPASAS       MOSUNNY   85  69  58 N6        29.98F
$$

TXZ095>097-106>112-122>126-135>138-148>153-164>167-010000-
EAST TEXAS

CITY           SKY/WX    TMP DP  RH WIND       PRES   REMARKS
PARIS          CLOUDY    68  63  83 NE13      30.00F
SULPHUR SPRNGS CLOUDY    74  71  92 E5        29.99S
CLARKSVILLE    CLOUDY    71  70  97 N6        30.00S
MOUNT PLEASANT CLOUDY    71  70  97 E7        29.99S
GILMER         CLOUDY    72  72 100 NE8       29.97S FOG
MINEOLA        CLOUDY    73  73 100 E3        29.96S FOG
TYLER          HVY RAIN  77  74  90 SE10      29.92S FOG
LONGVIEW       LGT RAIN  76  72  87 E6        29.93F FOG
MARSHALL       CLOUDY    73  71  91 CALM      29.98S
ATHENS         CLOUDY    81  72  74 NW9       29.93S
JACKSONVILLE   CLOUDY    77  75  93 E3        29.95F
HENDERSON      CLOUDY    77  75  94 SE5       29.94S
NACOGDOCHES    CLOUDY    75  73  94 S5        29.95F
LUFKIN         LGT RAIN  82  75  79 N5        29.92R
$$

SUPPLEMENTAL OBSERVATIONS (CENTRAL)

CITY           SKY/WX    TMP DP  RH WIND       PRES   REMARKS
$$

SUPPLEMENTAL OBSERVATIONS (WEST)

CITY           SKY/WX    TMP DP  RH WIND       PRES   REMARKS
$$

SUPPLEMENTAL OBSERVATIONS (EAST)

CITY           SKY/WX    TMP DP  RH WIND       PRES   REMARKS
$$

SUPPLEMENTAL OBSERVATIONS ARE A COLLECTION OF AUTOMATED INSTRUMENTS
THAT ARE MAINTAINED BY A VARIETY OF FEDERAL AND STATE AGENCIES.
CERTAIN ELEMENTS...SUCH AS HUMIDITY VALUES AND SUSTAINED WIND
SPEEDS...MAY BE APPROXIMATED.